Time,TemperatureF,DewpointF,PressureIn,WindDirection,WindDirectionDegrees,WindSpeedMPH,WindSpeedGustMPH,Humidity,HourlyPrecipIn,Conditions,Clouds,dailyrainin,SolarRadiationWatts/m^2,SoftwareType,DateUTC
2013-05-07 00:00:00,58.9,52.7,30.03,South,177,0.0,0.0,80,0.00,,,0.00,0,Wunderground v.1.15,2013-05-07 07:00:00,
2013-05-07 00:05:00,58.9,52.7,30.02,South,177,0.0,0.0,80,0.00,,,0.00,0,Wunderground v.1.15,2013-05-07 07:05:00,
2013-05-07 00:15:00,58.9,52.7,30.03,South,177,0.0,0.0,80,0.00,,,0.00,0,Wunderground v.1.15,2013-05-07 07:15:00,
2013-05-07 00:20:00,58.9,53.1,30.02,South,177,0.0,0.0,81,0.00,,,0.00,0,Wunderground v.1.15,2013-05-07 07:20:00,
2013-05-07 00:30:00,58.8,52.6,30.02,South,177,0.0,0.0,80,0.00,,,0.00,0,Wunderground v.1.15,2013-05-07 07:30:00,
2013-05-07 00:35:00,58.8,53.0,30.02,South,177,0.0,0.0,81,0.00,,,0.00,0,Wunderground v.1.15,2013-05-07 07:35:00,
2013-05-07 00:45:00,58.8,53.0,30.02,South,177,0.0,0.0,81,0.00,,,0.00,0,Wunderground v.1.15,2013-05-07 07:45:00,
2013-05-07 00:50:00,58.8,53.0,30.02,South,177,0.0,0.0,81,0.00,,,0.00,0,Wunderground v.1.15,2013-05-07 07:50:00,
2013-05-07 00:55:00,58.7,52.9,30.02,South,177,0.0,0.0,81,0.00,,,0.00,0,Wunderground v.1.15,2013-05-07 07:55:00,
2013-05-07 01:05:00,58.5,52.4,30.02,South,177,0.0,0.0,80,0.00,,,0.00,0,Wunderground v.1.15,2013-05-07 08:05:00,
2013-05-07 01:15:00,58.1,52.0,30.01,South,177,0.0,0.0,80,0.00,,,0.00,0,Wunderground v.1.15,2013-05-07 08:15:00,
2013-05-07 01:25:00,57.9,52.1,30.01,South,177,0.0,0.0,81,0.00,,,0.00,0,Wunderground v.1.15,2013-05-07 08:25:00,
2013-05-07 01:30:00,57.7,51.9,30.01,South,177,0.0,0.0,81,0.00,,,0.00,0,Wunderground v.1.15,2013-05-07 08:30:00,
2013-05-07 01:40:00,57.6,51.8,30.01,South,177,0.0,0.0,81,0.00,,,0.00,0,Wunderground v.1.15,2013-05-07 08:40:00,
2013-05-07 01:45:00,57.6,51.8,30.00,South,177,0.0,0.0,81,0.00,,,0.00,0,Wunderground v.1.15,2013-05-07 08:45:00,
2013-05-07 01:54:00,57.6,52.1,30.00,South,177,0.0,0.0,82,0.00,,,0.00,0,Wunderground v.1.15,2013-05-07 08:54:00,
2013-05-07 02:00:00,57.5,52.0,30.00,South,177,0.0,0.0,82,0.00,,,0.00,0,Wunderground v.1.15,2013-05-07 09:00:00,
2013-05-07 02:05:00,57.5,52.0,30.00,South,177,0.0,0.0,82,0.00,,,0.00,0,Wunderground v.1.15,2013-05-07 09:05:00,
2013-05-07 02:15:00,57.4,51.9,30.00,South,177,0.0,0.0,82,0.00,,,0.00,0,Wunderground v.1.15,2013-05-07 09:15:00,
2013-05-07 02:25:00,57.3,51.9,30.00,South,177,0.0,0.0,82,0.00,,,0.00,0,Wunderground v.1.15,2013-05-07 09:25:00,
2013-05-07 02:30:00,57.1,51.7,30.00,South,177,0.0,0.0,82,0.00,,,0.00,0,Wunderground v.1.15,2013-05-07 09:30:00,
2013-05-07 02:35:00,57.1,51.7,30.00,South,177,0.0,0.0,82,0.00,,,0.00,0,Wunderground v.1.15,2013-05-07 09:35:00,
2013-05-07 02:45:00,57.0,51.6,30.00,South,177,0.0,0.0,82,0.00,,,0.00,0,Wunderground v.1.15,2013-05-07 09:45:00,
2013-05-07 02:50:00,57.0,51.2,30.00,South,177,0.0,0.0,81,0.00,,,0.00,0,Wunderground v.1.15,2013-05-07 09:50:00,
2013-05-07 03:00:00,56.8,50.4,30.00,South,177,0.0,0.0,79,0.00,,,0.00,0,Wunderground v.1.15,2013-05-07 10:00:00,
2013-05-07 03:05:00,56.6,50.2,30.00,South,177,0.0,0.0,79,0.00,,,0.00,0,Wunderground v.1.15,2013-05-07 10:05:00,
2013-05-07 03:15:00,56.3,49.9,30.00,South,177,0.0,0.0,79,0.00,,,0.00,0,Wunderground v.1.15,2013-05-07 10:15:00,
2013-05-07 03:25:00,56.2,50.1,30.00,South,177,0.0,0.0,80,0.00,,,0.00,0,Wunderground v.1.15,2013-05-07 10:25:00,
2013-05-07 03:35:00,56.1,49.7,30.00,South,177,0.0,0.0,79,0.00,,,0.00,0,Wunderground v.1.15,2013-05-07 10:35:00,
2013-05-07 03:45:00,56.1,49.7,30.00,South,177,0.0,0.0,79,0.00,,,0.00,0,Wunderground v.1.15,2013-05-07 10:45:00,
2013-05-07 03:50:00,56.1,49.7,29.99,South,177,0.0,0.0,79,0.00,,,0.00,0,Wunderground v.1.15,2013-05-07 10:50:00,
2013-05-07 03:55:00,56.1,49.7,29.99,South,177,0.0,0.0,79,0.00,,,0.00,0,Wunderground v.1.15,2013-05-07 10:55:00,
2013-05-07 04:00:00,56.2,49.8,29.99,South,177,0.0,0.0,79,0.00,,,0.00,0,Wunderground v.1.15,2013-05-07 11:00:00,
2013-05-07 04:05:00,56.2,49.8,29.99,South,177,0.0,0.0,79,0.00,,,0.00,0,Wunderground v.1.15,2013-05-07 11:05:00,
2013-05-07 04:15:00,56.1,50.0,29.99,South,177,0.0,0.0,80,0.00,,,0.00,0,Wunderground v.1.15,2013-05-07 11:15:00,
2013-05-07 04:25:00,56.1,50.0,29.98,South,177,0.0,0.0,80,0.00,,,0.00,0,Wunderground v.1.15,2013-05-07 11:25:00,
2013-05-07 04:30:00,56.0,49.6,29.98,South,177,0.0,0.0,79,0.00,,,0.00,0,Wunderground v.1.15,2013-05-07 11:30:00,
2013-05-07 04:40:00,56.0,49.9,29.99,South,177,0.0,0.0,80,0.00,,,0.00,0,Wunderground v.1.15,2013-05-07 11:40:00,
2013-05-07 04:50:00,55.9,49.8,29.99,South,177,0.0,0.0,80,0.00,,,0.00,0,Wunderground v.1.15,2013-05-07 11:50:00,
2013-05-07 04:55:00,55.9,49.5,29.99,South,177,0.0,0.0,79,0.00,,,0.00,0,Wunderground v.1.15,2013-05-07 11:55:00,
2013-05-07 05:00:00,55.8,49.4,29.99,South,177,0.0,0.0,79,0.00,,,0.00,0,Wunderground v.1.15,2013-05-07 12:00:00,
2013-05-07 05:05:00,55.8,49.4,29.99,South,177,0.0,0.0,79,0.00,,,0.00,0,Wunderground v.1.15,2013-05-07 12:05:00,
2013-05-07 05:15:00,56.1,50.0,30.00,South,177,0.0,0.0,80,0.00,,,0.00,0,Wunderground v.1.15,2013-05-07 12:15:00,
2013-05-07 05:20:00,56.1,50.0,29.99,South,177,0.0,0.0,80,0.00,,,0.00,0,Wunderground v.1.15,2013-05-07 12:20:00,
2013-05-07 05:25:00,56.2,50.1,29.99,South,177,0.0,0.0,80,0.00,,,0.00,0,Wunderground v.1.15,2013-05-07 12:25:00,
2013-05-07 05:35:00,56.4,50.3,29.99,South,177,0.0,0.0,80,0.00,,,0.00,0,Wunderground v.1.15,2013-05-07 12:35:00,
2013-05-07 05:45:00,56.6,50.5,30.00,South,177,0.0,0.0,80,0.00,,,0.00,0,Wunderground v.1.15,2013-05-07 12:45:00,
2013-05-07 05:50:00,56.7,50.6,30.00,South,177,0.0,0.0,80,0.00,,,0.00,0,Wunderground v.1.15,2013-05-07 12:50:00,
2013-05-07 05:55:00,56.8,50.7,30.00,South,177,0.0,0.0,80,0.00,,,0.00,0,Wunderground v.1.15,2013-05-07 12:55:00,
2013-05-07 06:00:00,56.9,50.8,30.00,South,177,0.0,0.0,80,0.00,,,0.00,0,Wunderground v.1.15,2013-05-07 13:00:00,
2013-05-07 06:05:00,57.0,50.9,30.00,South,177,0.0,0.0,80,0.00,,,0.00,0,Wunderground v.1.15,2013-05-07 13:05:00,
2013-05-07 06:15:00,57.1,51.0,30.01,South,177,0.0,0.0,80,0.00,,,0.00,0,Wunderground v.1.15,2013-05-07 13:15:00,
2013-05-07 06:20:00,57.2,51.1,30.00,South,177,0.0,0.0,80,0.00,,,0.00,0,Wunderground v.1.15,2013-05-07 13:20:00,
2013-05-07 06:25:00,57.3,51.2,30.00,South,177,0.0,0.0,80,0.00,,,0.00,0,Wunderground v.1.15,2013-05-07 13:25:00,
2013-05-07 06:35:00,57.5,51.7,30.01,South,177,0.0,0.0,81,0.00,,,0.00,0,Wunderground v.1.15,2013-05-07 13:35:00,
2013-05-07 06:45:00,57.7,51.9,30.01,South,177,0.0,0.0,81,0.00,,,0.00,0,Wunderground v.1.15,2013-05-07 13:45:00,
2013-05-07 06:50:00,57.8,52.0,30.01,South,177,0.0,0.0,81,0.00,,,0.00,0,Wunderground v.1.15,2013-05-07 13:50:00,
2013-05-07 07:00:00,57.4,51.3,30.01,South,177,0.0,0.0,80,0.00,,,0.00,0,Wunderground v.1.15,2013-05-07 14:00:00,
2013-05-07 07:05:00,57.3,51.2,30.01,South,177,0.0,0.0,80,0.00,,,0.00,0,Wunderground v.1.15,2013-05-07 14:05:00,
2013-05-07 07:15:00,57.5,51.4,30.02,South,177,1.0,1.0,80,0.00,,,0.00,0,Wunderground v.1.15,2013-05-07 14:15:00,
2013-05-07 07:25:00,57.1,50.0,30.02,NNW,337,6.0,6.0,77,0.00,,,0.00,0,Wunderground v.1.15,2013-05-07 14:25:00,
2013-05-07 07:30:00,56.6,49.1,30.02,NW,320,6.0,6.0,76,0.00,,,0.00,0,Wunderground v.1.15,2013-05-07 14:30:00,
2013-05-07 07:35:00,56.3,48.8,30.02,NNW,339,1.0,6.0,76,0.00,,,0.00,0,Wunderground v.1.15,2013-05-07 14:35:00,
2013-05-07 07:44:00,56.3,48.8,30.02,North,359,0.0,2.0,76,0.00,,,0.00,0,Wunderground v.1.15,2013-05-07 14:44:00,
2013-05-07 07:50:00,56.3,48.8,30.02,NNW,337,1.0,1.0,76,0.00,,,0.00,0,Wunderground v.1.15,2013-05-07 14:50:00,
2013-05-07 07:55:00,56.4,48.9,30.02,NW,313,2.0,2.0,76,0.00,,,0.00,0,Wunderground v.1.15,2013-05-07 14:55:00,
2013-05-07 08:00:00,56.5,49.0,30.03,NW,319,2.0,2.0,76,0.00,,,0.00,0,Wunderground v.1.15,2013-05-07 15:00:00,
2013-05-07 08:05:00,56.7,49.6,30.03,NNW,328,3.0,3.0,77,0.00,,,0.00,0,Wunderground v.1.15,2013-05-07 15:05:00,
2013-05-07 08:14:00,57.0,49.9,30.03,NNW,335,3.0,3.0,77,0.00,,,0.00,0,Wunderground v.1.15,2013-05-07 15:14:00,
2013-05-07 08:20:00,57.2,50.1,30.03,NNW,335,0.0,0.0,77,0.00,,,0.00,0,Wunderground v.1.15,2013-05-07 15:20:00,
2013-05-07 08:25:00,57.6,50.8,30.03,NNW,335,1.0,1.0,78,0.00,,,0.00,0,Wunderground v.1.15,2013-05-07 15:25:00,
2013-05-07 08:30:00,58.0,50.8,30.03,NNW,335,0.0,0.0,77,0.00,,,0.00,0,Wunderground v.1.15,2013-05-07 15:30:00,
2013-05-07 08:40:00,58.5,51.0,30.03,NE,54,0.0,0.0,76,0.00,,,0.00,0,Wunderground v.1.15,2013-05-07 15:40:00,
2013-05-07 08:45:00,58.7,50.4,30.03,NE,54,0.0,0.0,74,0.00,,,0.00,0,Wunderground v.1.15,2013-05-07 15:45:00,
2013-05-07 08:50:00,58.9,50.6,30.03,NE,36,0.0,0.0,74,0.00,,,0.00,0,Wunderground v.1.15,2013-05-07 15:50:00,
2013-05-07 09:00:00,59.8,51.5,30.03,North,352,0.0,0.0,74,0.00,,,0.00,0,Wunderground v.1.15,2013-05-07 16:00:00,
2013-05-07 09:05:00,60.4,51.7,30.03,North,352,1.0,1.0,73,0.00,,,0.00,0,Wunderground v.1.15,2013-05-07 16:05:00,
2013-05-07 09:15:00,60.9,51.0,30.04,North,352,0.0,0.0,70,0.00,,,0.00,0,Wunderground v.1.15,2013-05-07 16:15:00,
2013-05-07 09:20:00,60.9,51.0,30.04,NNE,24,0.0,0.0,70,0.00,,,0.00,0,Wunderground v.1.15,2013-05-07 16:20:00,
2013-05-07 09:30:00,60.8,51.0,30.04,NNE,24,0.0,0.0,70,0.00,,,0.00,0,Wunderground v.1.15,2013-05-07 16:30:00,
2013-05-07 09:40:00,60.7,50.5,30.04,NNE,24,0.0,0.0,69,0.00,,,0.00,0,Wunderground v.1.15,2013-05-07 16:40:00,
2013-05-07 09:45:00,60.8,51.0,30.04,NNE,24,0.0,0.0,70,0.00,,,0.00,0,Wunderground v.1.15,2013-05-07 16:45:00,
2013-05-07 09:55:00,60.9,50.3,30.04,ESE,117,0.0,1.0,68,0.00,,,0.00,0,Wunderground v.1.15,2013-05-07 16:55:00,
2013-05-07 10:00:00,61.3,50.2,30.03,ESE,117,0.0,0.0,67,0.00,,,0.00,0,Wunderground v.1.15,2013-05-07 17:00:00,
2013-05-07 10:05:00,61.7,49.4,30.03,ESE,119,2.0,2.0,64,0.00,,,0.00,0,Wunderground v.1.15,2013-05-07 17:05:00,
2013-05-07 10:15:00,62.8,49.6,30.03,SW,215,0.0,0.0,62,0.00,,,0.00,0,Wunderground v.1.15,2013-05-07 17:15:00,
2013-05-07 10:25:00,62.9,47.4,30.03,SW,234,1.0,1.0,57,0.00,,,0.00,0,Wunderground v.1.15,2013-05-07 17:25:00,
2013-05-07 10:30:00,62.8,49.1,30.04,SW,218,0.0,0.0,61,0.00,,,0.00,0,Wunderground v.1.15,2013-05-07 17:30:00,
2013-05-07 10:40:00,63.2,50.0,30.04,South,180,2.0,2.0,62,0.00,,,0.00,0,Wunderground v.1.15,2013-05-07 17:40:00,
2013-05-07 10:45:00,64.0,50.7,30.04,SSW,196,4.0,4.0,62,0.00,,,0.00,0,Wunderground v.1.15,2013-05-07 17:45:00,
2013-05-07 10:55:00,63.5,49.8,30.04,SW,214,4.0,6.0,61,0.00,,,0.00,0,Wunderground v.1.15,2013-05-07 17:55:00,
2013-05-07 11:00:00,63.7,50.4,30.04,SE,138,0.0,0.0,62,0.00,,,0.00,0,Wunderground v.1.15,2013-05-07 18:00:00,
2013-05-07 11:05:00,63.9,50.6,30.04,SSE,166,1.0,1.0,62,0.00,,,0.00,0,Wunderground v.1.15,2013-05-07 18:05:00,
2013-05-07 11:15:00,64.4,50.2,30.04,SSW,193,0.0,0.0,60,0.00,,,0.00,0,Wunderground v.1.15,2013-05-07 18:15:00,
2013-05-07 11:20:00,64.9,48.8,30.05,WSW,249,2.0,2.0,56,0.00,,,0.00,0,Wunderground v.1.15,2013-05-07 18:20:00,
2013-05-07 11:30:00,65.6,48.5,30.04,SSW,205,3.0,3.0,54,0.00,,,0.00,0,Wunderground v.1.15,2013-05-07 18:30:00,
2013-05-07 11:40:00,65.0,48.4,30.04,WSW,239,4.0,4.0,55,0.00,,,0.00,0,Wunderground v.1.15,2013-05-07 18:40:00,
2013-05-07 11:45:00,65.0,48.4,30.05,South,191,4.0,4.0,55,0.00,,,0.00,0,Wunderground v.1.15,2013-05-07 18:45:00,
2013-05-07 11:50:00,64.7,46.1,30.04,WSW,246,3.0,3.0,51,0.00,,,0.00,0,Wunderground v.1.15,2013-05-07 18:50:00,
2013-05-07 12:00:00,65.1,46.5,30.04,SW,231,3.0,3.0,51,0.00,,,0.00,0,Wunderground v.1.15,2013-05-07 19:00:00,
2013-05-07 12:05:00,65.2,46.6,30.04,SSW,203,0.0,3.0,51,0.00,,,0.00,0,Wunderground v.1.15,2013-05-07 19:05:00,
2013-05-07 12:15:00,66.3,47.6,30.04,SSW,209,6.0,6.0,51,0.00,,,0.00,0,Wunderground v.1.15,2013-05-07 19:15:00,
2013-05-07 12:20:00,66.1,48.0,30.04,SSW,212,3.0,3.0,52,0.00,,,0.00,0,Wunderground v.1.15,2013-05-07 19:20:00,
2013-05-07 12:25:00,65.7,47.1,30.04,WNW,289,0.0,3.0,51,0.00,,,0.00,0,Wunderground v.1.15,2013-05-07 19:25:00,
2013-05-07 12:35:00,65.4,47.3,30.04,SW,226,4.0,4.0,52,0.00,,,0.00,0,Wunderground v.1.15,2013-05-07 19:35:00,
2013-05-07 12:45:00,65.5,46.4,30.04,SSW,213,3.0,3.0,50,0.00,,,0.00,0,Wunderground v.1.15,2013-05-07 19:45:00,
2013-05-07 12:50:00,65.5,45.8,30.04,SSE,154,0.0,0.0,49,0.00,,,0.00,0,Wunderground v.1.15,2013-05-07 19:50:00,
2013-05-07 12:55:00,65.8,47.7,30.03,SW,220,0.0,0.0,52,0.00,,,0.00,0,Wunderground v.1.15,2013-05-07 19:55:00,
2013-05-07 13:05:00,67.2,47.9,30.03,WSW,237,2.0,2.0,50,0.00,,,0.00,0,Wunderground v.1.15,2013-05-07 20:05:00,
2013-05-07 13:15:00,67.0,47.7,30.03,SW,220,5.0,5.0,50,0.00,,,0.00,0,Wunderground v.1.15,2013-05-07 20:15:00,
2013-05-07 13:20:00,67.7,47.3,30.03,SW,230,6.0,6.0,48,0.00,,,0.00,0,Wunderground v.1.15,2013-05-07 20:20:00,
2013-05-07 13:25:00,67.1,47.8,30.03,NW,307,0.0,6.0,50,0.00,,,0.00,0,Wunderground v.1.15,2013-05-07 20:25:00,
2013-05-07 13:30:00,67.8,46.8,30.03,SW,218,3.0,3.0,47,0.00,,,0.00,0,Wunderground v.1.15,2013-05-07 20:30:00,
2013-05-07 13:40:00,66.9,46.6,30.03,SW,225,5.0,5.0,48,0.00,,,0.00,0,Wunderground v.1.15,2013-05-07 20:40:00,
2013-05-07 13:45:00,66.8,46.5,30.03,South,184,6.0,6.0,48,0.00,,,0.00,0,Wunderground v.1.15,2013-05-07 20:45:00,
2013-05-07 13:50:00,67.2,46.8,30.03,South,191,2.0,2.0,48,0.00,,,0.00,0,Wunderground v.1.15,2013-05-07 20:50:00,
2013-05-07 14:00:00,68.3,48.4,30.02,SE,140,0.0,0.0,49,0.00,,,0.00,0,Wunderground v.1.15,2013-05-07 21:00:00,
2013-05-07 14:05:00,67.9,45.8,30.02,South,169,6.0,6.0,45,0.00,,,0.00,0,Wunderground v.1.15,2013-05-07 21:05:00,
2013-05-07 14:15:00,67.1,45.6,30.02,SSW,200,6.0,6.0,46,0.00,,,0.00,0,Wunderground v.1.15,2013-05-07 21:15:00,
2013-05-07 14:20:00,66.9,44.9,30.02,SSW,192,4.0,4.0,45,0.00,,,0.00,0,Wunderground v.1.15,2013-05-07 21:20:00,
2013-05-07 14:30:00,66.8,46.5,30.02,SSW,202,3.0,3.0,48,0.00,,,0.00,0,Wunderground v.1.15,2013-05-07 21:30:00,
2013-05-07 14:40:00,66.7,46.9,30.02,WSW,249,4.0,4.0,49,0.00,,,0.00,0,Wunderground v.1.15,2013-05-07 21:40:00,
2013-05-07 14:45:00,66.3,46.6,30.02,SSW,206,4.0,4.0,49,0.00,,,0.00,0,Wunderground v.1.15,2013-05-07 21:45:00,
2013-05-07 14:55:00,66.8,47.0,30.02,SW,220,3.0,3.0,49,0.00,,,0.00,0,Wunderground v.1.15,2013-05-07 21:55:00,
2013-05-07 15:00:00,66.4,46.7,30.02,WSW,255,2.0,2.0,49,0.00,,,0.00,0,Wunderground v.1.15,2013-05-07 22:00:00,
2013-05-07 15:05:00,65.9,47.8,30.03,South,178,2.0,2.0,52,0.00,,,0.00,0,Wunderground v.1.15,2013-05-07 22:05:00,
2013-05-07 15:14:00,65.6,49.5,30.02,SSE,166,4.0,4.0,56,0.00,,,0.00,0,Wunderground v.1.15,2013-05-07 22:14:00,
2013-05-07 15:20:00,65.7,49.1,30.02,SSW,205,3.0,3.0,55,0.00,,,0.00,0,Wunderground v.1.15,2013-05-07 22:20:00,
2013-05-07 15:25:00,65.8,51.1,30.03,South,186,7.0,7.0,59,0.00,,,0.00,0,Wunderground v.1.15,2013-05-07 22:25:00,
2013-05-07 15:30:00,66.1,50.9,30.02,SSW,193,3.0,3.0,58,0.00,,,0.00,0,Wunderground v.1.15,2013-05-07 22:30:00,
2013-05-07 15:40:00,65.8,50.6,30.02,SW,231,7.0,7.0,58,0.00,,,0.00,0,Wunderground v.1.15,2013-05-07 22:40:00,
2013-05-07 15:45:00,65.1,50.4,30.02,SW,217,5.0,7.0,59,0.00,,,0.00,0,Wunderground v.1.15,2013-05-07 22:45:00,
2013-05-07 15:55:00,65.1,50.0,30.02,West,274,5.0,5.0,58,0.00,,,0.00,0,Wunderground v.1.15,2013-05-07 22:55:00,
2013-05-07 16:00:00,65.4,49.3,30.01,SW,226,6.0,6.0,56,0.00,,,0.00,0,Wunderground v.1.15,2013-05-07 23:00:00,
2013-05-07 16:05:00,65.7,49.6,30.01,WSW,239,3.0,6.0,56,0.00,,,0.00,0,Wunderground v.1.15,2013-05-07 23:05:00,
2013-05-07 16:14:00,66.4,49.2,30.01,SSW,195,3.0,3.0,54,0.00,,,0.00,0,Wunderground v.1.15,2013-05-07 23:14:00,
2013-05-07 16:20:00,66.4,49.2,30.01,West,264,3.0,3.0,54,0.00,,,0.00,0,Wunderground v.1.15,2013-05-07 23:20:00,
2013-05-07 16:25:00,66.5,48.3,30.01,SSW,202,5.0,5.0,52,0.00,,,0.00,0,Wunderground v.1.15,2013-05-07 23:25:00,
2013-05-07 16:30:00,66.1,48.5,30.01,South,184,2.0,2.0,53,0.00,,,0.00,0,Wunderground v.1.15,2013-05-07 23:30:00,
2013-05-07 16:40:00,67.1,49.9,30.01,West,273,1.0,1.0,54,0.00,,,0.00,0,Wunderground v.1.15,2013-05-07 23:40:00,
2013-05-07 16:50:00,66.9,49.2,30.01,South,188,4.0,4.0,53,0.00,,,0.00,0,Wunderground v.1.15,2013-05-07 23:50:00,
2013-05-07 16:55:00,66.7,48.5,30.01,SSE,166,2.0,4.0,52,0.00,,,0.00,0,Wunderground v.1.15,2013-05-07 23:55:00,
2013-05-07 17:00:00,67.0,49.3,30.01,South,181,0.0,0.0,53,0.00,,,0.00,0,Wunderground v.1.15,2013-05-08 00:00:00,
2013-05-07 17:05:00,67.7,48.9,30.01,SW,227,0.0,0.0,51,0.00,,,0.00,0,Wunderground v.1.15,2013-05-08 00:05:00,
2013-05-07 17:14:00,67.0,49.3,30.01,SW,230,1.0,2.0,53,0.00,,,0.00,0,Wunderground v.1.15,2013-05-08 00:14:00,
2013-05-07 17:19:00,66.6,49.4,30.01,South,186,2.0,2.0,54,0.00,,,0.00,0,Wunderground v.1.15,2013-05-08 00:19:00,
2013-05-07 17:25:00,66.3,49.2,30.01,SE,138,1.0,2.0,54,0.00,,,0.00,0,Wunderground v.1.15,2013-05-08 00:25:00,
2013-05-07 17:30:00,66.3,50.1,30.01,SW,231,1.0,1.0,56,0.00,,,0.00,0,Wunderground v.1.15,2013-05-08 00:30:00,
2013-05-07 17:40:00,65.8,50.6,30.01,SSW,210,3.0,3.0,58,0.00,,,0.00,0,Wunderground v.1.15,2013-05-08 00:40:00,
2013-05-07 17:45:00,65.4,49.8,30.01,South,190,0.0,3.0,57,0.00,,,0.00,0,Wunderground v.1.15,2013-05-08 00:45:00,
2013-05-07 17:55:00,64.6,49.0,30.01,SSW,206,2.0,2.0,57,0.00,,,0.00,0,Wunderground v.1.15,2013-05-08 00:55:00,
2013-05-07 18:00:00,64.1,48.5,30.01,SW,235,1.0,1.0,57,0.00,,,0.00,0,Wunderground v.1.15,2013-05-08 01:00:00,
2013-05-07 18:05:00,63.9,48.4,30.01,SSW,205,2.0,2.0,57,0.00,,,0.00,0,Wunderground v.1.15,2013-05-08 01:05:00,
2013-05-07 18:14:00,64.0,49.4,30.01,SSW,205,2.0,2.0,59,0.00,,,0.00,0,Wunderground v.1.15,2013-05-08 01:14:00,
2013-05-07 18:20:00,63.6,49.0,30.01,South,183,0.0,0.0,59,0.00,,,0.00,0,Wunderground v.1.15,2013-05-08 01:20:00,
2013-05-07 18:25:00,63.5,48.9,30.01,South,183,3.0,3.0,59,0.00,,,0.00,0,Wunderground v.1.15,2013-05-08 01:25:00,
2013-05-07 18:30:00,63.3,49.6,30.01,South,187,1.0,1.0,61,0.00,,,0.00,0,Wunderground v.1.15,2013-05-08 01:30:00,
2013-05-07 18:40:00,62.8,49.6,30.01,SSW,194,1.0,1.0,62,0.00,,,0.00,0,Wunderground v.1.15,2013-05-08 01:40:00,
2013-05-07 18:45:00,62.6,50.7,30.01,SW,217,3.0,3.0,65,0.00,,,0.00,0,Wunderground v.1.15,2013-05-08 01:45:00,
2013-05-07 18:55:00,62.3,50.4,30.01,SSW,207,1.0,1.0,65,0.00,,,0.00,0,Wunderground v.1.15,2013-05-08 01:55:00,
2013-05-07 19:00:00,62.1,50.6,30.01,SSW,207,2.0,2.0,66,0.00,,,0.00,0,Wunderground v.1.15,2013-05-08 02:00:00,
2013-05-07 19:05:00,61.9,50.0,30.02,SSW,207,1.0,2.0,65,0.00,,,0.00,0,Wunderground v.1.15,2013-05-08 02:05:00,
2013-05-07 19:14:00,61.4,49.5,30.02,SSW,208,0.0,0.0,65,0.00,,,0.00,0,Wunderground v.1.15,2013-05-08 02:14:00,
2013-05-07 19:20:00,61.2,49.7,30.02,SSW,207,0.0,0.0,66,0.00,,,0.00,0,Wunderground v.1.15,2013-05-08 02:20:00,
2013-05-07 19:25:00,61.1,50.1,30.02,SSW,208,0.0,0.0,67,0.00,,,0.00,0,Wunderground v.1.15,2013-05-08 02:25:00,
2013-05-07 19:34:00,61.0,50.0,30.02,SSW,208,0.0,0.0,67,0.00,,,0.00,0,Wunderground v.1.15,2013-05-08 02:34:00,
2013-05-07 19:40:00,60.7,50.1,30.02,SSW,208,0.0,0.0,68,0.00,,,0.00,0,Wunderground v.1.15,2013-05-08 02:40:00,
2013-05-07 19:45:00,60.5,49.9,30.02,SSW,208,0.0,0.0,68,0.00,,,0.00,0,Wunderground v.1.15,2013-05-08 02:45:00,
2013-05-07 19:54:00,60.3,50.1,30.02,SSW,208,0.0,0.0,69,0.00,,,0.00,0,Wunderground v.1.15,2013-05-08 02:54:00,
2013-05-07 20:00:00,60.2,49.6,30.03,SSW,208,0.0,0.0,68,0.00,,,0.00,0,Wunderground v.1.15,2013-05-08 03:00:00,
2013-05-07 20:05:00,60.3,49.7,30.03,SSW,208,0.0,0.0,68,0.00,,,0.00,0,Wunderground v.1.15,2013-05-08 03:05:00,
2013-05-07 20:10:00,60.3,49.7,30.03,SSW,208,0.0,0.0,68,0.00,,,0.00,0,Wunderground v.1.15,2013-05-08 03:10:00,
2013-05-07 20:19:00,60.3,50.1,30.03,SSW,208,0.0,0.0,69,0.00,,,0.00,0,Wunderground v.1.15,2013-05-08 03:19:00,
2013-05-07 20:25:00,60.3,50.5,30.03,SSW,208,0.0,0.0,70,0.00,,,0.00,0,Wunderground v.1.15,2013-05-08 03:25:00,
2013-05-07 20:30:00,60.4,50.6,30.03,SSW,208,0.0,0.0,70,0.00,,,0.00,0,Wunderground v.1.15,2013-05-08 03:30:00,
2013-05-07 20:40:00,60.4,50.2,30.03,SSW,208,0.0,0.0,69,0.00,,,0.00,0,Wunderground v.1.15,2013-05-08 03:40:00,
2013-05-07 20:45:00,60.4,50.2,30.03,SSW,208,0.0,0.0,69,0.00,,,0.00,0,Wunderground v.1.15,2013-05-08 03:45:00,
2013-05-07 20:50:00,60.4,50.2,30.03,SSW,208,0.0,0.0,69,0.00,,,0.00,0,Wunderground v.1.15,2013-05-08 03:50:00,
2013-05-07 20:55:00,60.4,50.2,30.03,SSW,208,0.0,0.0,69,0.00,,,0.00,0,Wunderground v.1.15,2013-05-08 03:55:00,
2013-05-07 21:05:00,60.1,50.3,30.04,SSW,208,0.0,0.0,70,0.00,,,0.00,0,Wunderground v.1.15,2013-05-08 04:05:00,
2013-05-07 21:09:00,59.9,50.1,30.04,SSW,208,0.0,0.0,70,0.00,,,0.00,0,Wunderground v.1.15,2013-05-08 04:09:00,
2013-05-07 21:15:00,59.9,50.1,30.04,SSW,208,0.0,0.0,70,0.00,,,0.00,0,Wunderground v.1.15,2013-05-08 04:15:00,
2013-05-07 21:19:00,59.7,49.5,30.04,SSW,208,0.0,0.0,69,0.00,,,0.00,0,Wunderground v.1.15,2013-05-08 04:19:00,
2013-05-07 21:25:00,59.6,49.4,30.04,SSW,208,0.0,0.0,69,0.00,,,0.00,0,Wunderground v.1.15,2013-05-08 04:25:00,
2013-05-07 21:35:00,59.3,49.1,30.05,SSW,208,0.0,0.0,69,0.00,,,0.00,0,Wunderground v.1.15,2013-05-08 04:35:00,
2013-05-07 21:45:00,59.0,48.8,30.05,SSW,208,0.0,0.0,69,0.00,,,0.00,0,Wunderground v.1.15,2013-05-08 04:45:00,
2013-05-07 21:55:00,58.8,48.3,30.05,SSW,208,0.0,0.0,68,0.00,,,0.00,0,Wunderground v.1.15,2013-05-08 04:55:00,
2013-05-07 22:00:00,58.7,48.2,30.05,SSW,208,0.0,0.0,68,0.00,,,0.00,0,Wunderground v.1.15,2013-05-08 05:00:00,
2013-05-07 22:05:00,58.6,48.1,30.06,SSW,208,0.0,0.0,68,0.00,,,0.00,0,Wunderground v.1.15,2013-05-08 05:05:00,
2013-05-07 22:15:00,58.2,48.1,30.06,SSW,208,0.0,0.0,69,0.00,,,0.00,0,Wunderground v.1.15,2013-05-08 05:15:00,
2013-05-07 22:25:00,57.8,48.1,30.06,SSW,208,0.0,0.0,70,0.00,,,0.00,0,Wunderground v.1.15,2013-05-08 05:25:00,
2013-05-07 22:35:00,57.5,47.8,30.06,SSW,208,0.0,0.0,70,0.00,,,0.00,0,Wunderground v.1.15,2013-05-08 05:35:00,
2013-05-07 22:44:00,57.4,47.3,30.07,SSW,208,0.0,0.0,69,0.00,,,0.00,0,Wunderground v.1.15,2013-05-08 05:44:00,
2013-05-07 22:50:00,57.4,47.7,30.07,SSW,208,0.0,0.0,70,0.00,,,0.00,0,Wunderground v.1.15,2013-05-08 05:50:00,
2013-05-07 22:55:00,57.4,47.3,30.07,SSW,208,0.0,0.0,69,0.00,,,0.00,0,Wunderground v.1.15,2013-05-08 05:55:00,
2013-05-07 23:00:00,57.4,47.3,30.07,SSW,208,1.0,1.0,69,0.00,,,0.00,0,Wunderground v.1.15,2013-05-08 06:00:00,
2013-05-07 23:10:00,57.5,47.8,30.07,SSW,208,0.0,0.0,70,0.00,,,0.00,0,Wunderground v.1.15,2013-05-08 06:10:00,
2013-05-07 23:15:00,57.5,47.8,30.07,SSW,208,0.0,0.0,70,0.00,,,0.00,0,Wunderground v.1.15,2013-05-08 06:15:00,
2013-05-07 23:25:00,57.5,48.2,30.07,SSW,208,0.0,0.0,71,0.00,,,0.00,0,Wunderground v.1.15,2013-05-08 06:25:00,
2013-05-07 23:30:00,57.6,48.6,30.07,SSW,208,0.0,0.0,72,0.00,,,0.00,0,Wunderground v.1.15,2013-05-08 06:30:00,
2013-05-07 23:40:00,57.8,48.8,30.07,SSW,208,0.0,0.0,72,0.00,,,0.00,0,Wunderground v.1.15,2013-05-08 06:40:00,
2013-05-07 23:50:00,57.9,48.9,30.08,SSW,208,0.0,0.0,72,0.00,,,0.00,0,Wunderground v.1.15,2013-05-08 06:50:00,
2013-05-07 23:55:00,58.0,49.0,30.07,SSW,208,0.0,0.0,72,0.00,,,0.00,0,Wunderground v.1.15,2013-05-08 06:55:00,